EA1BQO-1 Weather Reports


time (UTC)temp
F
wind
direction
speed
knots
gust
knots
rain 1hr
in
rain 24hr
in
rain mn
in
humidity
%
barometer
mb
20260902083158 65 239 0.9 3.5 0.00 0.00 0.00 71 1020.6
20260902082258 65 294 0.0 4.3 0.00 0.00 0.00 74 1020.5
20260902081358 64 190 0.0 2.6 0.00 0.00 0.00 77 1020.5
20260902080458 63 243 0.0 1.7 0.00 0.00 0.00 79 1020.6
20260902075558 62 341 0.0 1.7 0.00 0.00 0.00 81 1020.6
20260902074658 62 97 0.0 1.7 0.00 0.00 0.00 84 1020.6
20260902073758 60 23 0.0 2.6 0.00 0.00 0.00 86 1020.5
20260902072858 59 38 1.7 3.5 0.00 0.00 0.00 87 1020.4
20260902071958 59 89 0.9 2.6 0.00 0.00 0.00 91 1020.3
20260902071058 57 80 0.0 1.7 0.00 0.00 0.00 93 1020.2
20260902070158 56 90 1.7 2.6 0.00 0.00 0.00 96 1020.4
20260902065258 55 81 0.0 3.5 0.00 0.00 0.00 97 1020.2
20260902064358 54 49 0.9 1.7 0.00 0.00 0.00 99 1020.3
20260902063458 53 57 0.0 1.7 0.00 0.00 0.00 99 1020.1
20260902062558 52 81 0.0 1.7 0.00 0.00 0.00 98 1020.1
20260902061658 52 97 0.0 1.7 0.00 0.00 0.00 97 1020.1
20260902060758 52 91 0.9 1.7 0.00 0.00 0.00 97 1020.1
20260902055858 52 87 0.0 1.7 0.00 0.00 0.00 97 1019.9
20260902054958 53 60 0.0 1.7 0.00 0.00 0.00 97 1019.9
20260902054058 53 68 0.9 2.6 0.00 0.00 0.00 97 1019.7
20260902053158 52 93 0.0 3.5 0.00 0.00 0.00 97 1019.6
20260902052258 52 103 1.7 2.6 0.00 0.00 0.00 96 1019.6
20260902051358 52 106 0.9 2.6 0.00 0.00 0.00 95 1019.5
20260902050458 53 92 1.7 2.6 0.00 0.00 0.00 95 1019.4
20260902045559 53 90 0.9 2.6 0.00 0.00 0.00 94 1019.5
20260902044658 53 80 0.0 1.7 0.00 0.00 0.00 93 1019.5
20260902043758 53 49 0.0 1.7 0.00 0.00 0.00 93 1019.4
20260902042858 53 90 0.0 1.7 0.00 0.00 0.00 93 1019.4
20260902041958 53 84 0.9 1.7 0.00 0.00 0.00 92 1019.4
20260902041058 54 50 0.0 2.6 0.00 0.00 0.00 93 1019.4
20260902040158 54 57 0.9 2.6 0.00 0.00 0.00 92 1019.4
20260902035258 54 83 0.0 2.6 0.00 0.00 0.00 92 1019.3
20260902034358 54 100 0.9 1.7 0.00 0.00 0.00 91 1019.5
20260902033458 54 91 0.9 2.6 0.00 0.00 0.00 91 1019.3
20260902032558 54 116 0.9 2.6 0.00 0.00 0.00 90 1019.2
20260902031658 54 125 0.0 1.7 0.00 0.00 0.00 89 1019.2
20260902030758 54 130 0.0 1.7 0.00 0.00 0.00 88 1019.3
20260902025858 54 128 1.7 1.7 0.00 0.00 0.00 87 1019.2
20260902024958 54 92 0.0 1.7 0.00 0.00 0.00 86 1019.2
20260902024058 55 127 0.0 1.7 0.00 0.00 0.00 84 1019.0
20260902023158 55 136 0.0 1.7 0.00 0.00 0.00 84 1019.1
20260902022258 56 82 0.0 1.7 0.00 0.00 0.00 84 1019.0
20260902021358 56 95 0.0 1.7 0.00 0.00 0.00 84 1019.0
20260902020458 57 78 0.9 3.5 0.00 0.00 0.00 84 1019.3
20260902015558 57 73 1.7 4.3 0.00 0.00 0.00 84 1019.3
20260902014658 57 76 0.0 4.3 0.00 0.00 0.00 84 1019.2
20260902013758 57 84 1.7 4.3 0.00 0.00 0.00 82 1019.2
20260902012858 57 91 0.9 4.3 0.00 0.00 0.00 81 1019.3
20260902011958 57 86 1.7 3.5 0.00 0.00 0.00 80 1019.3
20260902011058 57 90 0.9 3.5 0.00 0.00 0.00 79 1019.4
20260902010158 58 122 0.0 1.7 0.00 0.00 0.00 77 1019.5
20260902005258 58 117 0.9 1.7 0.00 0.00 0.00 77 1019.4
20260902004358 59 105 0.9 2.6 0.00 0.00 0.00 77 1019.6
20260902003458 59 102 0.9 4.3 0.00 0.00 0.00 77 1019.6
20260902002558 59 89 1.7 4.3 0.00 0.00 0.00 77 1019.4
20260902001658 59 93 0.9 4.3 0.00 0.00 0.00 75 1019.3
20260902000758 59 109 0.9 2.6 0.00 0.00 0.00 75 1019.2
20260901235858 60 91 0.9 3.5 0.00 0.00 0.00 74 1019.1
20260901234958 60 111 0.0 3.5 0.00 0.00 0.00 74 1019.1
20260901234058 60 86 1.7 3.5 0.00 0.00 0.00 74 1019.0
20260901233158 60 71 1.7 3.5 0.00 0.00 0.00 73 1019.3
20260901232258 60 80 0.9 3.5 0.00 0.00 0.00 72 1019.1
20260901231358 60 98 1.7 2.6 0.00 0.00 0.00 70 1019.0
20260901230458 61 111 0.0 1.7 0.00 0.00 0.00 68 1018.8
20260901225558 61 123 0.0 3.5 0.00 0.00 0.00 68 1018.9
20260901224658 62 122 1.7 3.5 0.00 0.00 0.00 68 1018.9
20260901223758 62 117 1.7 3.5 0.00 0.00 0.00 67 1019.0
20260901222858 62 133 1.7 2.6 0.00 0.00 0.00 66 1018.8
20260901221958 62 112 0.0 3.5 0.00 0.00 0.00 65 1018.9
20260901221058 63 129 1.7 3.5 0.00 0.00 0.00 64 1018.7
20260901220158 63 128 0.9 3.5 0.00 0.00 0.00 62 1018.7
20260901215258 64 94 0.0 1.7 0.00 0.00 0.00 60 1018.6
20260901214358 64 130 0.0 4.3 0.00 0.00 0.00 60 1018.5
20260901213458 65 131 1.7 3.5 0.00 0.00 0.00 59 1018.5
20260901212558 66 130 1.7 3.5 0.00 0.00 0.00 56 1018.5
20260901211658 66 119 1.7 3.5 0.00 0.00 0.00 56 1018.4
20260901210758 67 132 1.7 2.6 0.00 0.00 0.00 53 1018.3
20260901205858 68 129 0.0 1.7 0.00 0.00 0.00 50 1018.3
20260901204958 68 158 1.7 1.7 0.00 0.00 0.00 48 1018.1
20260901204058 69 262 0.0 2.6 0.00 0.00 0.00 46 1017.8
20260901203158 70 317 0.0 1.7 0.00 0.00 0.00 44 1017.7
20260901202258 71 280 0.0 2.6 0.00 0.00 0.00 42 1017.6
20260901201358 72 273 0.9 3.5 0.00 0.00 0.00 40 1017.4
20260901200458 72 303 1.7 4.3 0.00 0.00 0.00 39 1017.3
20260901195558 72 248 0.9 2.6 0.00 0.00 0.00 38 1017.2
20260901194658 73 273 0.9 2.6 0.00 0.00 0.00 36 1017.1
20260901193758 74 245 0.9 3.5 0.00 0.00 0.00 35 1016.9
20260901192858 75 218 1.7 4.3 0.00 0.00 0.00 33 1016.7
20260901191958 76 230 0.9 5.2 0.00 0.00 0.00 31 1016.6
20260901191058 76 238 1.7 5.2 0.00 0.00 0.00 30 1016.6
20260901190158 77 236 0.9 5.2 0.00 0.00 0.00 27 1016.4
20260901185258 78 243 1.7 4.3 0.00 0.00 0.00 27 1016.3
20260901184358 79 230 2.6 6.1 0.00 0.00 0.00 25 1016.1
20260901183458 81 239 1.7 5.2 0.00 0.00 0.00 23 1016.1
20260901182558 82 251 1.7 5.2 0.00 0.00 0.00 20 1015.9
20260901181658 83 273 1.7 5.2 0.00 0.00 0.00 17 1015.9
20260901180758 84 270 1.7 5.2 0.00 0.00 0.00 14 1015.8
20260901175858 84 263 2.6 7.0 0.00 0.00 0.00 13 1015.7
20260901174958 84 274 2.6 7.0 0.00 0.00 0.00 10 1015.9
20260901174058 85 248 1.7 7.0 0.00 0.00 0.00 10 1015.7
20260901173158 85 284 1.7 6.1 0.00 0.00 0.00 10 1015.7
20260901172258 85 230 1.7 7.0 0.00 0.00 0.00 10 1015.5
20260901171358 86 272 3.5 7.0 0.00 0.00 0.00 10 1015.6
20260901170458 86 294 2.6 7.0 0.00 0.00 0.00 10 1015.5
20260901165558 86 240 2.6 7.0 0.00 0.00 0.00 10 1015.4
20260901164658 86 266 1.7 7.0 0.00 0.00 0.00 10 1015.4
20260901163758 86 270 4.3 7.0 0.00 0.00 0.00 10 1015.5
20260901162858 86 255 2.6 7.0 0.00 0.00 0.00 10 1015.4
20260901161958 86 296 3.5 7.0 0.00 0.00 0.00 10 1015.4
20260901161058 86 300 1.7 6.1 0.00 0.00 0.00 10 1015.5
20260901160158 86 286 1.7 7.0 0.00 0.00 0.00 10 1015.4
20260901155258 86 258 3.5 6.1 0.00 0.00 0.00 10 1015.3
20260901154358 86 271 3.5 7.8 0.00 0.00 0.00 10 1015.3
20260901153458 86 267 1.7 7.0 0.00 0.00 0.00 10 1015.5
20260901152558 86 238 1.7 7.0 0.00 0.00 0.00 10 1015.4
20260901151658 86 260 1.7 6.1 0.00 0.00 0.00 10 1015.7
20260901150758 85 81 2.6 4.3 0.00 0.00 0.00 10 1015.7
20260901145858 85 317 1.7 7.0 0.00 0.00 0.00 10 1015.7
20260901144958 85 246 0.9 7.0 0.00 0.00 0.00 10 1015.7
20260901144058 85 264 1.7 7.8 0.00 0.00 0.00 10 1015.7
20260901143158 85 271 2.6 7.8 0.00 0.00 0.00 10 1015.9
20260901142258 85 297 2.6 8.7 0.00 0.00 0.00 10 1015.9
20260901141358 85 272 1.7 8.7 0.00 0.00 0.00 10 1015.8
20260901140458 84 233 1.7 7.0 0.00 0.00 0.00 11 1015.8
20260901135558 84 265 1.7 7.0 0.00 0.00 0.00 12 1015.8
20260901134658 84 284 1.7 7.8 0.00 0.00 0.00 13 1016.0
20260901133758 83 220 2.6 7.0 0.00 0.00 0.00 12 1016.2
20260901132858 83 229 3.5 7.8 0.00 0.00 0.00 14 1016.4
20260901131958 83 217 2.6 8.7 0.00 0.00 0.00 13 1016.4
20260901131058 82 341 4.3 8.7 0.00 0.00 0.00 13 1016.6
20260901130158 82 292 4.3 11.3 0.00 0.00 0.00 15 1016.7
20260901125258 82 257 2.6 8.7 0.00 0.00 0.00 19 1016.8
20260901124358 81 234 0.9 7.0 0.00 0.00 0.00 21 1016.7
20260901123458 80 247 1.7 7.0 0.00 0.00 0.00 22 1016.7
20260901122558 80 262 2.6 6.1 0.00 0.00 0.00 24 1016.9
20260901121658 80 259 3.5 5.2 0.00 0.00 0.00 25 1017.0
20260901120758 79 52 1.7 5.2 0.00 0.00 0.00 26 1017.1
20260901115858 79 328 2.6 6.1 0.00 0.00 0.00 27 1017.0
20260901114958 77 320 0.9 4.3 0.00 0.00 0.00 30 1017.0
20260901114058 77 10 0.0 3.5 0.00 0.00 0.00 35 1017.2
20260901113158 76 303 0.9 3.5 0.00 0.00 0.00 37 1017.3
20260901112258 76 312 1.7 3.5 0.00 0.00 0.00 40 1017.4
20260901111358 75 303 0.0 5.2 0.00 0.00 0.00 44 1017.5
20260901110458 73 288 0.0 3.5 0.00 0.00 0.00 48 1017.7
20260901105558 73 241 1.7 3.5 0.00 0.00 0.00 50 1017.7
20260901104658 71 278 1.7 5.2 0.00 0.00 0.00 50 1018.0
20260901103758 70 271 1.7 4.3 0.00 0.00 0.00 54 1018.1
20260901102858 69 297 0.9 4.3 0.00 0.00 0.00 58 1018.1
20260901101958 68 302 1.7 4.3 0.00 0.00 0.00 59 1018.1
20260901101058 68 330 3.5 4.3 0.00 0.00 0.00 58 1018.3
20260901100158 68 69 0.9 2.6 0.00 0.00 0.00 60 1018.3
20260901095258 68 44 1.7 3.5 0.00 0.00 0.00 61 1018.3
20260901094358 68 323 1.7 3.5 0.00 0.00 0.00 65 1018.3
20260901093458 66 269 0.9 3.5 0.00 0.00 0.00 67 1018.4
20260901092558 65 283 1.7 5.2 0.00 0.00 0.00 68 1018.5
20260901091658 65 293 1.7 6.1 0.00 0.00 0.00 71 1018.6
20260901090758 64 290 1.7 3.5 0.00 0.00 0.00 74 1018.5
20260901085858 62 283 1.7 4.3 0.00 0.00 0.00 76 1018.5
20260901084958 61 274 0.0 4.3 0.00 0.00 0.00 77 1018.4
20260901084058 61 270 1.7 3.5 0.00 0.00 0.00 75 1018.5